Regional Weather Roundup
Issued by NWS

Home | Current Version | Previous Version | Graphics & Text | Print | Product List | Glossary On
Versions: 1 2 3 4 5 6 7 8 9 10 11 12 13 14 15 16 17 18 19 20 21 22 23 24 25 26 27 28 29 30 31 32 33 34 35 36 37 38 39 40 41 42 43 44 45 46 47 48 49 50
000
ASUS45 KTFX 230719
RWRMT
MONTANA HOURLY WEATHER ROUNDUP
NATIONAL WEATHER SERVICE GREAT FALLS MT
119 AM MDT TUE SEP 23 2014

NOTE: "FAIR" INDICATES FEW OR NO CLOUDS BELOW 12000 FEET WITH NO
SIGNIFICANT WEATHER AND/OR OBSTRUCTIONS TO VISIBILITY.

* THESE STATIONS ARE NOT UNDER NWS QUALITY CONTROL. THEY DO NOT
   REPORT WEATHER SUCH AS PRECIPITATION OR FOG.

MTZ001>007-043-230800-
WEST OF THE DIVIDE
CITY           SKY/WX    TMP DP  RH WIND       PRES   REMARKS
KALISPELL      MOCLDY    50  46  86 CALM      29.95R
MISSOULA       PTCLDY    61  43  52 NW5       30.00R
BUTTE          CLEAR     46  43  89 CALM      30.12S
MULLAN PASS    MOCLDY    57  43  60 VRB3      30.13R
* ESSEX        N/A       55  45  69 S1G8       N/A
* LINCOLN      N/A       47  37  68 N2         N/A
* POLSON       N/A       63  41  45 SE1        N/A
* RONAN APT    PTCLDY    55  45  69 N/A        N/A
* SEELEY LAKE  N/A       46  37  71 N/A        N/A
* THOMP F APT  PTCLDY    48  47  96 NE3        N/A
$$

MTZ008-052>055-230800-
SOUTHWEST MONTANA
CITY           SKY/WX    TMP DP  RH WIND       PRES   REMARKS
BOZEMAN        CLEAR     48  46  93 E6        30.06S
DILLON         PTCLDY    54  46  74 S7        30.11R
W YELLOWSTONE  CLOUDY    46  46 100 CALM      30.22R
* THREE FORKS  PTCLDY    55  34  45 N/A        N/A
* BOULDER HILL N/A       57  43  60 S8         N/A
* MONIDA PASS  N/A       47  47 100 SE9        N/A
* RAYNOLDS PAS N/A       48  28  46 SE11       N/A
* WHITEHALL    N/A       51  46  83 N4         N/A
* WISE RIVER   N/A       49  43  80 W1G12      N/A
$$

MTZ009>010-012-014-046-048-049-054-230800-
EAST SLOPES AND CENTRAL MONTANA
CITY           SKY/WX    TMP DP  RH WIND       PRES   REMARKS
CUT BANK       PTCLDY    59  43  56 W9        29.93R
GREAT FALLS    PTCLDY    64  48  56 SW12      29.93S
HELENA         CLEAR     55  48  77 CALM      30.01R
MALMSTROM AFB  MOCLDY    64  50  61 SW10      29.94R
* CONRAD       PTCLDY    61  46  58 N/A        N/A
* EAST GLACIER N/A       56  43  62 N10        N/A
* MONARCH      N/A       56  43  62 S4         N/A
* PENDROY      N/A       64  43  47 NW15       N/A
* ROGERS PASS  N/A       58  34  41 W2         N/A
* SAINT MARY   N/A       51  43  74 S2         N/A
* SWEET GRASS  N/A       65  43  45 W12        N/A
* WHITE SULPH  N/A       53  43  69 NW2G10     N/A
$$

MTZ011-013-016-021-035-040-045-047-050-051-230800-
NORTH CENTRAL MONTANA
CITY           SKY/WX    TMP DP  RH WIND       PRES   REMARKS
HAVRE          CLEAR     52  46  80 W6        29.84S
LEWISTOWN      CLEAR     54  46  74 SE7       29.96S
* CHINOOK      CLEAR     52  48  86 CALM      29.83F
* FORT BENTON  PTCLDY    63  48  58 SW7       29.89R
* CHESTER      N/A       54  42  64 N3         N/A
* DENTON       N/A       58  48  70 S6         N/A
* GEYSER       N/A       58  46  65 W12        N/A
* JUDITH GAP   N/A       51  48  90 S4         N/A
* LOMA         N/A       63  48  58 W11        N/A
$$

MTZ017>020-022>027-061-062-230800-
NORTHEAST MONTANA
CITY           SKY/WX    TMP DP  RH WIND       PRES   REMARKS
GLASGOW        CLEAR     57  46  67 E7        29.83S
GLENDIVE       CLEAR     54  48  80 N7        29.86S
JORDAN         CLEAR     48  46  93 W6        29.85S
SIDNEY         CLEAR     52  46  80 N5        29.86S
WOLF POINT     CLEAR     55  48  77 E3        29.84S
* BEAVER HILL  N/A       57  49  75 SE13       N/A
* CIRCLE       N/A       54  47  77 N/A        N/A
* LINDSAY DVD  N/A       56  49  77 E4         N/A
* NAVAJO       N/A       58  48  70 S4         N/A
$$

MTZ028>042-056>058-230800-
SOUTHCENTRAL AND SOUTHEAST MONTANA
CITY           SKY/WX    TMP DP  RH WIND       PRES   REMARKS
BAKER          PTCLDY    55  50  83 E7        29.88S
BILLINGS       PTCLDY    64  46  52 SW13      29.94S
LIVINGSTON     PTCLDY    59  46  62 NW13      30.03F
MILES CITY     CLEAR     54  46  74 NW5       29.86R
* LAUREL APT   PTCLDY    61  45  56 N/A        N/A
* ROUNDUP APT  PTCLDY    59  46  62 SW5        N/A
* ALZADA       N/A       62  55  78 SE7        N/A
* HYSHAM       N/A       65  47  52 W4         N/A
* LAME DEER    N/A       65  48  54 W8         N/A
* REED POINT   N/A       63  44  50 SW6        N/A
* ROSCOE HILL  N/A       63  36  37 S10G15     N/A
$$

REGIONAL REPORTS...DAKOTAS
CITY           SKY/WX    TMP DP  RH WIND       PRES   REMARKS
WILLISTON      CLEAR     55  46  72 N5        29.86F
DICKINSON      PTCLDY    55  48  77 SE10      29.88R
BEACH          N/A       54  50  86 S5        29.87F
CROSBY         CLEAR     55  50  83 S9        29.87S
TIOGA          CLEAR     52  50  93 CALM      29.92S
WATFORD CITY   CLEAR     50  46  86 CALM      29.85S
BISMARCK       CLEAR     55  52  90 SE9       29.93F
GRAND FORKS    CLEAR     54  48  80 S8        30.03S
FARGO          CLEAR     61  48  62 SE10      30.05S
BUFFALO SD     MOCLDY    63  52  68 S7        29.84R
RAPID CITY     MOCLDY    57  54  90 SE7       29.93S
$$

REGIONAL REPORTS...WYOMING/IDAHO/WASHINGTON
CITY           SKY/WX    TMP DP  RH WIND       PRES   REMARKS
GILLETTE       MOCLDY    59  50  72 SW9       29.96F
SHERIDAN       PTCLDY    54  46  74 CALM      29.96S
CODY           CLEAR     63  45  52 W8G18     30.05F
YELLOWSTONE LA MOCLDY    46  45  96 CALM      30.29S
SALMON         PTCLDY    54  50  86 CALM      30.09R
MULLAN PASS    MOCLDY    57  43  60 VRB3      30.13S
SAND POINT     CLOUDY    59  52  78 SW5       29.93R
SPOKANE        CLOUDY    68  50  53 SW15      29.96R
$$

REGIONAL REPORTS...ALBERTA
CITY           SKY/WX    TMP DP  RH WIND       PRES   REMARKS
CALGARY        MOCLDY    59  43  56 W2        29.85S
LETHBRIDGE     CLEAR     61  45  56 SW15      29.85S
MEDICINE HAT   CLEAR     54  46  74 S6        29.80F
EDMONTON       MOCLDY    61  50  67 NW6       29.78R
WATERTON GATE  N/A       57  43  60 SW6        N/A
CARDSTON       N/A       61  45  56 SW8        N/A
MILK RIVER     N/A       54  46  74 NW9        N/A
$$

REGIONAL REPORTS...SASKATCHEWAN
CITY           SKY/WX    TMP DP  RH WIND       PRES   REMARKS
SWIFT CURRENT  CLEAR     59  48  67 S12       29.81S
REGINA         N/A       55  48  77 SE12      29.84S
VAL MARIE      N/A       45  43  93 NE2        N/A
ASSINIBOIA     N/A       55  43  64 S7         N/A
CORONACH       N/A       46  43  89 SE1        N/A

$$




USA.gov is the U.S. government's official web portal to all federal, state and local government web resources and services.